Location: Harwich
(41.7160°N, 69.9939°W)
Time: 08:09:02
(UTC+01:00)

BlueWalker 3 - Visible Passes

Search period start: 06 December 2022 00:00
Search period end: 16 December 2022 00:00
Orbit: 501 x 518 km, 53.2° (Epoch: 05 December)

Date Brightness Start Highest point End Pass type
(mag) Time Alt. Az. Time Alt. Az. Time Alt. Az.
06 Dec 3.7 00:06:24 10° NW 00:08:29 21° N 00:08:29 21° N visible
06 Dec 3.2 23:47:59 10° NW 23:51:01 25° NNE 23:51:01 25° NNE visible
07 Dec 3.1 23:29:34 10° NW 23:32:56 27° NNE 23:33:39 25° NE visible
08 Dec 4.9 01:08:00 10° WNW 01:08:30 13° WNW 01:08:30 13° WNW visible
08 Dec 3.0 23:11:08 10° NW 23:14:33 28° NNE 23:16:25 19° ENE visible
09 Dec 4.1 00:49:36 10° WNW 00:51:16 24° WNW 00:51:16 24° WNW visible
09 Dec 3.0 22:52:42 10° NW 22:56:09 29° NNE 22:59:21 11° E visible
10 Dec 3.0 00:31:12 10° WNW 00:34:14 44° W 00:34:14 44° W visible
11 Dec 2.7 00:12:48 10° WNW 00:16:35 50° SW 00:17:27 40° S visible
11 Dec 2.9 23:54:24 10° WNW 23:58:08 46° SW 00:01:05 15° SSE visible
12 Dec 3.1 23:36:00 10° WNW 23:39:42 43° SW 23:43:23 10° SSE visible
13 Dec 3.4 23:17:35 10° WNW 23:21:15 40° SW 23:24:53 10° SSE visible
14 Dec 3.6 22:59:10 10° WNW 23:02:48 37° SW 23:06:24 10° SSE visible
15 Dec 3.9 22:40:46 10° WNW 22:44:21 35° SW 22:47:53 10° SSE visible
